Location: Lombard
(41.8800°N, 88.0080°W)
Time: 13:17:55
(UTC-05:00)

A-11 Canister half - Pass Details

Date: 03 February 2023
Orbit: 1512 x 1687 km, 47.2° (Epoch: 20 March)

Event Time Altitude Azimuth Distance (km) Brightness Sun altitude
Rises 16:28:56 0° 296° (WNW) 4,726 12.1 6.0°
Reaches altitude 10° 16:32:02 10° 295° (WNW) 3,722 11.6 5.5°
Maximum altitude 16:41:20 74° 212° (SSW) 1,569 9.4 4.0°
Drops below altitude 10° 16:50:30 10° 130° (SE) 3,664 10.8 2.4°
Sets 16:53:31 0° 128° (SE) 4,649 11.2 1.9°
